Location: Gombori
(14.9797°N, 2.9419°W)
Time: 09:20:12
(UTC+00:00)

ATLAS 5 CENTAUR R/B - Pass Details

Date: 29 July 2021
Orbit: 263 x 12603 km, 20.2° (Epoch: 22 September)

Event Time Altitude Azimuth Distance (km) Brightness Sun altitude
Rises 20:19:14 0° 286° (WNW) 2,780 5.8 -22.3°
Reaches altitude 10° 20:22:03 10° 291° (WNW) 1,342 3.9 -22.9°
Enters shadow 20:23:17 22° 299° (WNW) 730 2.3 -23.1°
